Weather Roundup
Issued by NWS Chicago, IL

Home | Current Version | Previous Version | Text Only | Print | Product List | Glossary On
Versions: 1 2 3 4 5 6 7 8 9 10 11 12 13 14 15 16 17 18 19 20 21 22 23 24 25 26 27 28 29 30 31 32 33 34 35 36 37 38 39 40 41 42 43 44 45 46 47 48 49 50
000
NZUS59 KLOT 011110
HRRLOT

CHICAGO AREA WEATHER ROUNDUP
NATIONAL WEATHER SERVICE CHICAGO/ROMEOVILLE IL
600 AM CDT FRI AUG 01 2014

NOTE: "FAIR" INDICATES FEW OR NO CLOUDS BELOW 12,000 FEET WITH NO
SIGNIFICANT WEATHER AND/OR OBSTRUCTIONS TO VISIBILITY.

* THESE STATIONS ARE NOT UNDER NWS QUALITY CONTROL. THEY ALSO MAY NOT
  REPORT WEATHER SUCH AS PRECIPITATION OR FOG.

ILZ005-006-012>014-019>023-011200-
NORTHEAST ILLINOIS

CITY           SKY/WX    TMP DP  RH WIND       PRES   REMARKS
OHARE          PTCLDY    63  57  81 W6        30.06S
MIDWAY         PTCLDY    68  63  84 SW8       30.07R
AURORA         PTCLDY    58  56  93 CALM      30.09R FOG
LANSING*       CLEAR     60  59  97 CALM      30.08S FOG
JOLIET*        PTCLDY    61  59  92 CALM      30.09R FOG
WAUKEGAN       CLEAR     62  57  83 CALM      30.05S
DUPAGE AIRPORT PTCLDY    62  60  93 CALM      30.07R FOG
WHEELING       CLEAR     63  58  83 CALM      30.08R
KANKAKEE*      PTCLDY    59  57  96 CALM      30.09S
MORRIS*        PTCLDY    62  62 100 CALM      30.08R FOG
LEWIS AIRPORT* HVY RAIN  67  53  60 NE5G33    30.10R VSB 1/4
NORTHERLY IS     N/A     69  60  73 W5          N/A
$$

WIZ051-052-058>065-066-070>072-011200-
SOUTHEAST WISCONSIN

CITY           SKY/WX    TMP DP  RH WIND       PRES   REMARKS
MILWAUKEE      PTCLDY    65  57  75 W5        30.05R
KENOSHA*       CLEAR     58  56  93 SW6       30.06R
RACINE*        CLEAR     63  57  81 W5        30.07R
BURLINGTON     CLEAR     54  53  97 CALM      30.06R
WAUKESHA       CLEAR     55  55 100 CALM      30.06S
WEST BEND      CLEAR     57  54  88 CALM      30.05R
$$

INZ001>003-010>013-019-020-011200-
NORTHWEST INDIANA

CITY           SKY/WX    TMP DP  RH WIND       PRES   REMARKS
GARY*          PTCLDY    61  59  94 SW3       30.08R FOG
MICHIGAN CITY* NOT AVBL
RENSSELAER*    NOT AVBL
VALPARAISO     CLEAR     60  59  96 CALM      30.09R FOG
$$

LMZ740>746-011200-
SOUTHERN LAKE MICHIGAN

STATION/POSITION TIME  SKY/WX   TEMP WIND        PRES    VSBY
                                AIR  DIR/SP/G
                 (UTC)          (F)  (DEG/KT/KT) (MB)    (MI)
HARRISON CRIB    1100            71  260/ 10/ 10   N/A
BURNHAM HARBOR   1100            69  250/  5/  7   N/A
CALUMET HARBOR   1100            67  210/  3/  4 1017.0S
BURNS HARBOR     NOT AVBL
MICHIGAN CITY    1100            66  170/  6/  8   N/A
$$

ABBREVIATIONS USED IN REMARKS
   TC - TEMPERATURE IN CELSIUS
  WCI - WIND CHILL INDEX
   HX - HEAT INDEX
  VSB - VISIBILITY
$$


USA.gov is the U.S. government's official web portal to all federal, state and local government web resources and services.